Torna al catalogo

STARLINK-11323

AttivoComunicazioniVLEO
NORAD 61533·PAYLOAD·🇺🇸 United States

Lanciato Oct 15, 2024 da Vandenberg Space Force Base

Loading…

Prossimi Passaggi (prossime 24 ore)

TLE

AggiornatoSource: CelesTrak SupGP

Epoca: Sep 14, 2026, 21:15 UTC

1 61533C 24184B   26257.88590278  .00063538  00000+0  52316-3 0  2577
2 61533  53.1572  23.5688 0001048  75.2557 266.3577 15.69688173    10

Traccia STARLINK-11323 in tempo reale con AllMySat

Download on the App Store